CW1767 Weather Reports


Display with metric or nautical units.
time (UTC)temp
F
wind
direction
speed
MPH
gust
MPH
rain 1hr
in
rain 24hr
in
rain mn
in
humidity
%
barometer
mb
20260906051553 66 284 0.0 0.0 0.00 0.00 0.00 93 1011.3
20260906050110 66 284 0.0 0.0 0.00 0.00 0.00 93 1011.2
20260906044551 66 284 0.0 0.0 0.00 0.00 0.00 92 1011.5
20260906043050 67 284 0.0 0.0 0.00 0.00 0.00 92 1011.6
20260906041549 67 284 0.0 0.0 0.00 0.00 0.00 92 1011.5
20260906040046 67 283 0.0 0.0 0.00 0.00 0.00 91 1011.5
20260906034555 67 284 0.0 0.0 0.00 0.00 0.00 91 1011.7
20260906033045 68 284 0.0 0.0 0.00 0.00 0.00 91 1011.6
20260906031606 68 284 0.0 0.0 0.00 0.00 0.00 90 1011.6
20260906030041 69 284 0.0 0.0 0.00 0.00 0.00 91 1011.7
20260906024543 69 284 0.0 0.0 0.00 0.00 0.00 90 1011.8
20260906023050 69 284 0.0 0.0 0.00 0.00 0.00 89 1011.7
20260906021536 70 284 0.0 0.0 0.00 0.00 0.00 88 1011.6
20260906020044 70 283 0.0 0.0 0.00 0.00 0.00 87 1011.6
20260906014532 71 284 0.0 0.0 0.00 0.00 0.00 86 1011.5
20260906013030 71 284 0.0 0.0 0.00 0.00 0.00 86 1011.3
20260906011527 72 284 0.0 0.0 0.00 0.00 0.00 85 1011.2
20260906010028 73 284 0.0 0.0 0.00 0.00 0.00 83 1010.8
20260906004527 73 283 0.0 0.0 0.00 0.00 0.00 83 1010.9
20260906003026 73 283 0.0 0.0 0.00 0.00 0.00 81 1010.8
20260906001529 73 284 0.0 0.0 0.00 0.00 0.00 82 1010.9
20260906000025 74 284 0.0 0.0 0.00 0.00 0.00 79 1010.5
20260905234525 74 284 0.0 0.0 0.00 0.00 0.00 76 1010.5
20260905233025 76 284 0.0 1.0 0.00 0.00 0.00 75 1010.3
20260905231533 77 329 0.0 1.0 0.00 0.00 0.00 71 1010.4
20260905230024 78 329 0.0 0.0 0.00 0.00 0.00 67 1010.3
20260905224523 78 329 0.0 2.0 0.00 0.00 0.00 66 1010.3
20260905223023 79 338 0.0 2.0 0.00 0.00 0.00 65 1010.1
20260905221522 79 331 0.0 4.0 0.00 0.00 0.00 63 1009.9
20260905220021 80 323 0.0 3.0 0.00 0.00 0.00 64 1009.8
20260905214521 80 331 0.0 2.0 0.00 0.00 0.00 64 1009.8
20260905213021 80 330 0.0 5.0 0.00 0.00 0.00 64 1009.6
20260905211520 81 355 0.0 5.0 0.00 0.00 0.00 65 1009.4
20260905210019 81 328 0.0 5.0 0.00 0.00 0.00 64 1009.3
20260905204520 81 331 2.0 9.0 0.00 0.00 0.00 64 1009.2
20260905203018 82 290 2.0 5.0 0.00 0.00 0.00 65 1009.0
20260905201519 81 331 1.0 4.0 0.00 0.00 0.00 67 1008.9
20260905200019 82 295 0.0 5.0 0.00 0.00 0.00 67 1008.6
20260905194516 82 61 0.0 3.0 0.00 0.00 0.00 68 1008.7
20260905193015 82 332 1.0 3.0 0.00 0.00 0.00 66 1009.1
20260905191514 82 281 1.0 3.0 0.00 0.00 0.00 66 1009.6
20260905190026 82 264 0.0 2.0 0.00 0.00 0.00 68 1010.1
20260905184512 82 284 0.0 2.0 0.00 0.00 0.00 69 1010.3
20260905183015 82 311 1.0 4.0 0.00 0.00 0.00 67 1010.6
20260905181513 81 288 0.0 5.0 0.00 0.00 0.00 67 1010.7
20260905180012 81 327 1.0 4.0 0.00 0.00 0.00 68 1010.8
20260905174512 82 329 0.0 5.0 0.00 0.00 0.00 65 1010.8
20260905173010 82 263 0.0 3.0 0.00 0.00 0.00 65 1010.6
20260905171507 82 323 0.0 3.0 0.00 0.00 0.00 66 1010.7
20260905170011 82 346 1.0 4.0 0.00 0.00 0.00 65 1010.7
20260905164507 82 339 1.0 6.0 0.00 0.00 0.00 65 1010.7
20260905163006 81 329 0.0 4.0 0.00 0.00 0.00 66 1010.7
20260905161504 81 63 0.0 3.0 0.00 0.00 0.00 68 1010.9
20260905160006 81 63 2.0 4.0 0.00 0.00 0.00 69 1010.9
20260905154501 80 346 0.0 3.0 0.00 0.00 0.00 72 1011.2
20260905153058 80 319 1.0 4.0 0.00 0.00 0.00 72 1011.2
20260905151556 79 320 1.0 6.0 0.00 0.00 0.00 72 1011.0
20260905150055 79 338 1.0 4.0 0.00 0.00 0.00 75 1011.1
20260905144555 79 299 1.0 2.0 0.00 0.00 0.00 76 1011.1
20260905143055 79 61 1.0 5.0 0.00 0.00 0.00 76 1011.1
20260905141552 78 243 0.0 3.0 0.00 0.00 0.00 75 1011.0
20260905140058 78 337 0.0 4.0 0.00 0.00 0.00 78 1010.9
20260905134557 78 312 0.0 5.0 0.00 0.00 0.00 81 1010.8
20260905133049 77 31 0.0 3.0 0.00 0.00 0.00 83 1010.5
20260905131544 76 291 0.0 2.0 0.00 0.00 0.00 88 1010.4
20260905130042 76 343 1.0 4.0 0.00 0.00 0.00 89 1010.3
20260905124546 75 346 1.0 4.0 0.00 0.00 0.00 91 1010.4
20260905123041 75 327 0.0 3.0 0.00 0.00 0.00 92 1010.3
20260905121545 75 81 0.0 3.0 0.00 0.00 0.00 92 1010.5
20260905120053 75 311 0.0 3.0 0.00 0.00 0.00 93 1010.2
20260905114556 74 341 1.0 3.0 0.00 0.00 0.00 93 1010.1
20260905113051 74 323 0.0 1.0 0.00 0.00 0.00 94 1010.0
20260905111615 73 327 0.0 1.0 0.00 0.00 0.00 94 1009.8
20260905110038 73 279 0.0 1.0 0.00 0.00 0.00 95 1009.9
20260905104537 72 279 0.0 0.0 0.00 0.00 0.00 94 1009.4
20260905103038 72 279 0.0 0.0 0.00 0.00 0.00 94 1009.3
20260905101536 72 279 0.0 0.0 0.00 0.00 0.00 94 1009.1
20260905100034 72 279 0.0 0.0 0.00 0.00 0.00 94 1009.0
20260905094534 72 279 0.0 0.0 0.00 0.01 0.00 94 1009.0
20260905093039 72 279 0.0 0.0 0.00 0.01 0.00 94 1009.2
20260905091532 73 279 0.0 0.0 0.00 0.01 0.00 94 1009.2
20260905090031 73 279 0.0 0.0 0.00 0.01 0.00 94 1009.2
20260905084532 73 279 0.0 0.0 0.00 0.01 0.00 93 1009.2
20260905083028 73 279 0.0 0.0 0.00 0.01 0.00 93 1009.2
20260905081526 73 279 0.0 0.0 0.00 0.01 0.00 93 1009.2
20260905080030 74 279 0.0 0.0 0.00 0.07 0.00 93 1009.3
20260905074522 74 279 0.0 0.0 0.00 0.07 0.00 93 1009.6
20260905073029 74 279 0.0 0.0 0.00 0.07 0.00 92 1009.7
20260905071520 75 279 0.0 0.0 0.00 0.07 0.00 92 1009.6
20260905070029 75 279 0.0 1.0 0.00 0.15 0.00 91 1009.7
20260905064535 75 279 0.0 1.0 0.00 0.15 0.00 92 1009.8
20260905063017 75 275 0.0 1.0 0.00 0.15 0.00 91 1009.7
20260905061514 75 275 0.0 2.0 0.00 0.15 0.00 91 1009.8
20260905060015 76 271 0.0 1.0 0.00 0.36 0.00 91 1009.8
20260905054516 76 259 0.0 0.0 0.00 0.36 0.00 91 1009.9
20260905053010 76 259 0.0 1.0 0.00 0.36 0.00 91 1010.1